[[{"header":{"parameterUnit":"m.s-1","parameterCategory":1,"la1":30.2991,"la2":30.254,"lo1":-89.0895,"lo2":-89.0444,"dy":0.0017,"dx":0.0017,"nx":28,"ny":28,"refTime":"2023-07-20T09:00:00:Z","depth":0,"parameterNumber":2,"parameterNumberName":"U-component_of_WINDS"},"data":[0,0,0,0,0,0,0,0,0,0,0,0,0,0,0,0,0,0,0,0,0,0,0,0,0,0,0,0,0,0,0,0,0,0,0,0,0,0,0,0,0,0,0,0,0,0,0,0,0,0,0,0,0,0,0,0,0,0,5.275,5.2752,0,5.2946,5.2948,5.2951,5.2908,5.2904,5.2901,5.2897,5.31,5.3108,5.3117,0,0,0,0,0,0,0,0,0,0,0,0,0,5.2338,5.2345,5.275,5.2752,5.2755,5.2946,5.2948,5.2951,5.2909,5.2904,5.29,5.2896,5.3097,5.3107,5.3118,0,0,0,0,0,0,0,0,0,0,0,0,0,5.2524,5.2348,5.275,5.2757,5.2759,5.2945,5.2949,5.2952,5.291,5.2904,5.2899,5.2894,5.3093,5.3106,5.3119,5.3311,0,0,5.316,5.3165,0,0,0,0,0,0,0,0,5.2513,5.2539,5.2753,5.2757,5.276,5.2897,5.2877,5.3072,5.2911,5.2853,5.2897,5.2891,5.3037,5.3054,5.3103,5.332,5.3329,5.3161,5.3169,5.3174,5.3178,0,0,0,0,0,0,0,5.25,5.253,5.2828,5.2756,5.276,5.275,5.277,5.2914,5.2973,5.2857,5.2855,5.2878,5.3038,5.3091,5.3108,5.3332,5.316,5.3172,5.318,5.3185,5.3711,5.3717,0,0,0,0,0,0,5.2485,5.252,5.2821,5.2833,5.262,5.2762,5.2784,5.2859,5.2972,5.2983,5.2883,5.2876,5.3071,5.3092,5.3115,5.3343,5.3174,5.3187,5.3194,5.3705,5.3713,5.3719,0,0,0,0,0,0,5.2476,5.2512,5.2813,5.2676,5.2714,5.2775,5.2858,5.2865,5.2918,5.2991,5.3001,5.2926,5.3067,5.3096,5.3261,5.3349,5.3193,5.3205,5.3698,5.3708,5.3716,5.3803,0,0,0,0,0,0,5.2464,5.2509,5.2583,5.2678,5.2721,5.2957,5.2864,5.2873,5.2941,5.2933,5.3034,5.3046,5.3065,5.3242,5.3274,5.3365,5.3215,5.369,5.3702,5.3713,5.3793,5.3814,5.3832,0,0,0,0,0,5.245,5.2601,5.2587,5.2624,5.2815,5.2963,5.2987,5.3006,5.2948,5.3022,5.3068,5.3042,5.3335,5.3259,5.3295,5.3391,5.3685,5.3699,5.3712,5.3784,5.381,5.3832,0,0,0,0,0,0,5.2516,5.2614,5.2599,5.2786,5.2866,5.2955,5.3049,5.3034,5.3133,5.3122,5.3141,5.3164,5.3332,5.3378,5.3292,5.358,5.3502,5.3523,5.3543,5.3569,5.3588,5.3573,5.3226,0,0,0,0,0,5.2552,5.2664,5.2744,5.2901,5.2941,5.2989,5.3054,5.3061,5.3145,5.3179,5.3238,5.332,5.343,5.3503,5.3608,5.38,5.3819,5.3883,5.3903,5.3919,5.3937,5.4037,5.4066,5.3764,5.3764,5.3763,0,0,5.2629,5.2696,5.2766,5.2916,5.2979,5.3093,5.3018,5.3143,5.3228,5.3199,5.3357,5.3402,5.3496,5.3674,5.3755,5.3718,5.4024,5.3936,5.3948,5.3958,5.4054,5.4083,5.4108,5.3773,5.3771,5.377,0,0,5.2825,5.2889,5.3024,5.3089,5.3184,5.3214,5.3247,5.3338,5.3366,5.3525,5.3505,5.3606,5.3796,5.3862,5.3921,5.4139,5.4118,5.4173,5.4277,5.4374,5.4398,5.4419,5.4494,5.4521,5.4191,5.4191,5.4192,0,5.2908,5.308,5.3097,5.3223,5.3288,5.3265,5.3402,5.3464,5.3589,5.3634,5.3591,5.3826,5.3888,5.4079,5.4132,5.4181,5.4217,5.4161,5.4393,5.4415,5.4435,5.4506,5.4534,5.4197,5.4197,5.4196,5.4195,0,5.3175,5.3295,5.3393,5.3512,5.3589,5.372,5.3755,5.3831,5.3831,5.3865,5.4025,5.4098,5.4216,5.4262,5.4265,5.4453,5.4426,5.4388,5.4309,5.4469,5.4536,5.4564,5.4206,5.4203,5.4202,5.42,0,0,5.342,5.3545,5.3581,5.3633,5.3736,5.3828,5.3957,5.4071,5.4134,5.4221,5.4328,5.4488,5.4451,5.4518,5.4527,5.4614,5.4777,5.4564,5.4567,5.4598,5.4985,5.5011,5.5042,5.4764,5.4769,5.4774,5.4976,0,5.3624,5.385,5.3867,5.4071,5.4179,5.4158,5.427,5.4344,5.4379,5.4476,5.4514,5.4626,5.4572,5.4611,5.4695,5.4739,5.4855,5.4725,5.4862,5.4866,5.4836,5.5078,5.5107,5.5294,5.5003,5.5007,5.501,0,5.3892,5.3984,5.4198,5.4282,5.4328,5.4428,5.4532,5.4626,5.4709,5.4727,5.48,5.4797,5.4927,5.4844,5.5023,5.4935,5.4991,5.5021,5.5029,5.504,5.4946,5.5093,5.5355,5.5382,5.5053,5.5049,5.5046,0,5.4045,5.4224,5.4373,5.4419,5.4522,5.4592,5.4638,5.4715,5.4781,5.4873,5.4915,5.5021,5.5079,5.516,5.5184,5.5122,5.5361,5.5281,5.5378,5.5378,5.5428,5.5424,5.57,5.547,5.5469,5.5469,5.5468,0,5.4269,5.44,5.4443,5.4535,5.468,5.4698,5.4841,5.4883,5.4951,5.505,5.5039,5.5132,5.516,5.5257,5.5277,5.542,5.5447,5.5465,5.5468,5.5464,5.5461,5.55,5.5486,5.5476,5.5475,5.5473,5.5472,0,5.4464,5.4498,5.466,5.4742,5.4766,5.4869,5.4939,5.5027,5.5059,5.5183,5.5214,5.5264,5.5378,5.541,5.5548,5.5561,5.5728,5.5721,5.5699,5.5698,5.5792,5.5782,5.61,5.6141,5.5887,5.5889,5.5891,0,5.4604,5.4703,5.4796,5.486,5.4908,5.5014,5.508,5.5101,5.5171,5.5271,5.5346,5.5458,5.5548,5.573,5.5779,5.5883,5.5876,5.598,5.5892,5.5883,5.5874,5.5866,5.5874,5.5996,5.5999,5.6001,5.6003,0,5.4846,5.4857,5.4954,5.5055,5.5135,5.5216,5.5295,5.5348,5.538,5.5459,5.5574,5.5644,5.5782,5.5892,5.5996,5.6043,5.6028,5.6031,5.6058,5.6054,5.6035,5.6043,5.5741,5.6023,5.6021,5.602,5.6018,5.6018,5.5016,5.5102,5.5179,5.5286,5.5346,5.5418,5.5503,5.5545,5.5641,5.5754,5.5761,5.5885,5.5962,5.6101,5.6153,5.6249,5.6218,5.6259,5.6268,5.6277,5.6283,5.6022,5.6269,5.6268,5.6268,5.6267,5.6267,0,5.5255,5.5303,5.5401,5.5509,5.5592,5.557,5.5654,5.5725,5.5834,5.5907,5.5995,5.6125,5.6231,5.6287,5.6392,5.6458,5.6454,5.6485,5.6479,5.6489,5.6307,5.6271,5.6486,5.6486,5.6486,5.6486,5.6486,5.6486,5.5389,5.5532,5.5551,5.5723,5.577,5.589,5.594,5.6006,5.6063,5.6209,5.6296,5.6332,5.6397,5.6506,5.6601,5.6615,5.6652,5.6687,5.6696,5.6525,5.6502,5.6481,5.6447,5.6696,5.6696,5.687,5.6871,5.6873]},{"header":{"parameterUnit":"m.s-1","parameterCategory":1,"la1":30.2991,"la2":30.254,"lo1":-89.0895,"lo2":-89.0444,"dy":0.0017,"dx":0.0017,"nx":28,"ny":28,"refTime":"2023-07-20T09:00:00:Z","depth":0,"parameterNumber":3,"parameterNumberName":"V-component_of_WINDS"},"data":[0,0,0,0,0,0,0,0,0,0,0,0,0,0,0,0,0,0,0,0,0,0,0,0,0,0,0,0,0,0,0,0,0,0,0,0,0,0,0,0,0,0,0,0,0,0,0,0,0,0,0,0,0,0,0,0,0,0,2.048,2.0481,0,2.0545,2.0546,2.0546,2.0527,2.0525,2.0524,2.0523,2.0587,2.059,2.0592,0,0,0,0,0,0,0,0,0,0,0,0,0,2.0337,2.0339,2.048,2.0481,2.0482,2.0545,2.0546,2.0547,2.0527,2.0525,2.0523,2.0522,2.0586,2.0589,2.0593,0,0,0,0,0,0,0,0,0,0,0,0,0,2.04,2.034,2.048,2.048,2.048,2.0545,2.0546,2.0547,2.0527,2.0525,2.0523,2.0521,2.0584,2.0589,2.0593,2.0661,0,0,2.0607,2.0609,0,0,0,0,0,0,0,0,2.0396,2.0405,2.0479,2.048,2.0481,2.0526,2.0518,2.0585,2.0528,2.0509,2.0523,2.052,2.0568,2.0574,2.059,2.0664,2.0667,2.0607,2.061,2.0612,2.0613,0,0,0,0,0,0,0,2.0392,2.0402,2.0506,2.048,2.0481,2.0475,2.0482,2.0531,2.0549,2.0511,2.0509,2.0517,2.0568,2.0586,2.0591,2.0668,2.0607,2.0611,2.0614,2.0615,2.0799,2.0801,0,0,0,0,0,0,2.0387,2.0399,2.0504,2.0508,2.0433,2.0479,2.0487,2.0513,2.0549,2.0552,2.0519,2.0516,2.0579,2.0586,2.0594,2.0674,2.0612,2.0616,2.0618,2.0796,2.0799,2.0801,0,0,0,0,0,0,2.0384,2.0397,2.0501,2.0453,2.0466,2.0484,2.0514,2.0516,2.0533,2.0555,2.0558,2.0534,2.0578,2.0587,2.0644,2.0676,2.0618,2.0622,2.0794,2.0797,2.08,2.0837,0,0,0,0,0,0,2.038,2.0396,2.0423,2.0454,2.0468,2.0552,2.0516,2.0518,2.0541,2.0538,2.057,2.0573,2.0577,2.0638,2.0649,2.0681,2.0625,2.0791,2.0795,2.0799,2.0833,2.0841,2.0848,0,0,0,0,0,2.0375,2.0431,2.0425,2.0437,2.0503,2.0554,2.0562,2.0566,2.0544,2.0571,2.0584,2.0572,2.0671,2.0644,2.0656,2.069,2.0789,2.0794,2.0799,2.083,2.084,2.0848,0,0,0,0,0,0,2.0404,2.0435,2.0428,2.0496,2.0522,2.0551,2.0585,2.0577,2.061,2.0605,2.0608,2.0615,2.0673,2.0687,2.0656,2.0757,2.0726,2.0734,2.0746,2.0755,2.0763,2.0758,2.0629,0,0,0,0,0,2.0418,2.0458,2.0483,2.054,2.0553,2.0567,2.0589,2.0589,2.0617,2.0628,2.0645,2.0672,2.0708,2.0732,2.0767,2.0834,2.084,2.0864,2.0871,2.0878,2.0884,2.0919,2.0929,2.0818,2.0818,2.0817,0,0,2.0448,2.0469,2.0495,2.0546,2.0566,2.0606,2.0576,2.062,2.0649,2.0634,2.0689,2.0702,2.0732,2.0793,2.0822,2.0807,2.0916,2.0884,2.0889,2.0892,2.0925,2.0935,2.0945,2.0821,2.082,2.082,0,0,2.0522,2.0543,2.0592,2.0613,2.0644,2.0653,2.0664,2.0693,2.0702,2.0757,2.0745,2.0779,2.0843,2.0864,2.0883,2.0962,2.0952,2.0973,2.1013,2.1047,2.1055,2.1063,2.109,2.11,2.098,2.098,2.098,0,2.0555,2.0615,2.0618,2.0663,2.0685,2.0673,2.0721,2.0741,2.0782,2.0797,2.078,2.0858,2.0877,2.0943,2.0962,2.0978,2.099,2.097,2.1054,2.1062,2.1069,2.1095,2.1105,2.0982,2.0982,2.0982,2.0981,0,2.0653,2.0695,2.0731,2.0771,2.0797,2.0843,2.0852,2.0877,2.0875,2.0884,2.0939,2.0961,2.0999,2.1015,2.1013,2.1079,2.1069,2.1053,2.1023,2.1082,2.1106,2.1117,2.0986,2.0985,2.0984,2.0983,0,0,2.0749,2.0789,2.0802,2.0819,2.0851,2.0883,2.0928,2.0966,2.0987,2.1015,2.1052,2.1105,2.1089,2.1111,2.1111,2.114,2.12,2.112,2.1121,2.1134,2.1273,2.1285,2.1296,2.1193,2.1195,2.1196,2.127,0,2.0826,2.0906,2.0908,2.0981,2.1018,2.1006,2.1045,2.1068,2.1077,2.111,2.1119,2.1156,2.1134,2.1147,2.1175,2.1187,2.1228,2.1181,2.1226,2.1228,2.1219,2.1309,2.1322,2.1391,2.128,2.1281,2.1283,0,2.0926,2.0957,2.1033,2.1059,2.1075,2.111,2.1143,2.1175,2.12,2.1204,2.1227,2.1222,2.1266,2.1234,2.1294,2.1262,2.128,2.1288,2.129,2.1295,2.1259,2.1316,2.1413,2.1423,2.1298,2.1297,2.1296,0,2.0987,2.1048,2.1101,2.1116,2.1147,2.1172,2.1186,2.1209,2.1231,2.126,2.1273,2.1307,2.1325,2.1351,2.1354,2.133,2.1413,2.1382,2.1417,2.1417,2.1436,2.1435,2.1537,2.1448,2.1448,2.1447,2.1447,0,2.1073,2.1119,2.1129,2.1161,2.1212,2.1214,2.1264,2.1276,2.1297,2.133,2.1321,2.1352,2.1355,2.1387,2.139,2.1438,2.1446,2.145,2.145,2.1451,2.145,2.1463,2.1458,2.145,2.145,2.1449,2.1449,0,2.115,2.1158,2.1215,2.1239,2.1246,2.1283,2.1303,2.1333,2.1341,2.1383,2.1393,2.1405,2.1441,2.1447,2.149,2.1492,2.1549,2.1544,2.1541,2.154,2.1575,2.1571,2.1689,2.1704,2.1605,2.1606,2.1607,0,2.1204,2.124,2.1267,2.1289,2.1304,2.134,2.1362,2.1364,2.1387,2.1417,2.1443,2.1479,2.1508,2.1566,2.1578,2.161,2.1606,2.1645,2.1611,2.161,2.1606,2.1603,2.1606,2.1652,2.1653,2.1654,2.1654,0,2.1298,2.13,2.1332,2.1366,2.1392,2.1419,2.1443,2.1461,2.1466,2.1492,2.153,2.1552,2.1595,2.163,2.1662,2.1674,2.1665,2.1665,2.1674,2.1676,2.1672,2.1673,2.1558,2.1662,2.1661,2.1661,2.166,2.166,2.1365,2.1395,2.1419,2.1455,2.1474,2.1497,2.1526,2.1536,2.1568,2.1604,2.1602,2.1643,2.1665,2.1706,2.1721,2.1752,2.1739,2.1754,2.1757,2.1761,2.1764,2.1667,2.1758,2.1758,2.1757,2.1757,2.1757,0,2.1458,2.1472,2.1505,2.154,2.1568,2.1556,2.1582,2.1606,2.1642,2.1664,2.1692,2.1733,2.1767,2.178,2.1812,2.1834,2.183,2.1843,2.1841,2.1844,2.1774,2.1762,2.1845,2.1845,2.1845,2.1845,2.1845,2.1845,2.151,2.156,2.1564,2.1623,2.1637,2.1677,2.1693,2.1713,2.173,2.1777,2.1805,2.1813,2.1831,2.1864,2.1894,2.1896,2.1908,2.1922,2.1923,2.1858,2.1849,2.184,2.1829,2.1925,2.1925,2.199,2.1991,2.1991]}]]